{"data":{"norad_id":55458,"epoch":"2026-05-25T00:26:09.197664Z","epoch_age_seconds":63559,"freshness":"FRESH","line1":"1 55458U 23015K   26145.01816201 -.00000001  00000+0  94704-5 0  9995","line2":"2 55458  43.0016 257.8160 0001132 273.5989  86.4733 15.27575195182393","mean_motion":15.27575195,"eccentricity":0.0001132,"inclination_deg":43.0016,"raan_deg":257.816,"arg_perigee_deg":273.5989,"mean_anomaly_deg":86.4733,"bstar":9.4704e-6,"rev_number":18239,"period_min":94.267045230464,"perigee_km":482.28679608117,"apogee_km":483.84017187074,"semimajor_km":6861.200483976,"source":"CELESTRAK","updated_at":"2026-05-25T13:38:17.804113Z"}}